Wind_Speed
10 9 8 6 5 2 1 2 4 7 8 9 7 7 7 6 6 7 7 6 6 7 7 8 8 8 8 9 9 10 10 10 10 10 10 10 11 11 11 11 11 11 11 11 11 11 12 12 12
11 10 9 7 4 2 2 4 5 8 11 9 7 7 8 7 7 8 8 8 8 8 9 9 10 10 10 10 10 11 11 11 11 11 11 11 12 12 12 12 12 12 12 12 13 13 13 13 13
12 11 10 7 4 4 3 5 7 9 10 8 8 8 9 8 9 10 10 10 10 9 10 10 11 11 11 10 11 12 12 13 13 13 12 12 13 13 13 13 13 13 13 13 14 14 14 14 14
13 12 10 7 4 5 4 6 9 9 11 9 9 9 10 10 10 11 11 11 12 11 11 12 12 12 12 12 13 13 14 14 14 14 14 14 14 14 14 14 14 14 14 14 15 15 15 16 16
14 12 8 6 5 6 6 9 9 8 10 10 9 11 11 12 11 13 13 13 13 13 13 13 13 13 13 14 14 15 15 16 16 16 16 16 16 16 16 16 16 16 16 16 16 16 17 17 17
14 11 9 7 8 7 9 10 10 10 10 12 11 11 12 13 13 12 13 14 14 15 15 15 15 14 15 15 16 16 17 17 17 18 18 18 18 18 18 18 18 18 18 18 18 18 18 18 19
14 12 10 9 8 8 9 11 12 12 10 12 13 13 13 15 14 14 14 15 16 17 16 17 16 16 16 17 17 18 18 18 18 19 19 19 19 19 19 19 20 19 19 19 19 20 20 20 20
14 12 12 10 9 10 11 12 13 12 12 14 15 14 15 16 16 15 16 17 18 19 18 18 17 18 18 18 19 19 19 19 20 20 20 20 20 20 20 20 21 21 21 21 21 21 22 22 22
12 11 9 9 10 12 13 13 12 13 15 15 15 15 15 17 17 17 18 18 19 19 20 19 19 19 19 20 20 20 20 20 21 21 21 21 21 21 22 21 21 22 22 22 22 23 23 23 23
12 10 10 12 13 13 14 13 14 15 15 15 15 15 17 18 18 18 18 19 20 19 20 20 21 20 20 21 21 21 21 21 22 22 22 22 22 22 23 23 23 23 23 24 24 24 24 25 25
12 12 12 13 14 14 15 14 15 15 16 16 15 17 18 19 19 19 19 19 20 20 21 20 21 21 21 21 22 22 21 22 23 23 24 24 23 24 24 24 24 24 25 25 25 25 25 26 26
12 12 12 13 15 15 15 15 16 16 17 17 17 17 18 20 19 20 21 20 20 22 21 21 22 22 22 22 23 23 23 23 24 24 25 25 24 24 25 25 25 26 26 26 26 27 27 27 27
11 12 11 12 14 15 15 16 16 16 16 17 18 19 19 19 19 21 22 22 22 23 24 22 23 23 23 23 24 24 25 25 25 26 26 25 25 25 25 26 26 27 26 27 28 28 28 28 28
9 10 11 12 13 14 14 15 16 17 18 18 17 17 19 20 20 21 22 22 23 23 23 23 24 24 24 24 24 25 26 26 27 27 26 26 26 25 26 26 26 27 28 29 29 29 29 28 28
8 9 10 12 13 14 14 14 15 18 18 18 18 18 19 20 22 23 23 23 23 23 24 24 25 25 25 26 27 27 28 28 28 28 28 28 27 27 27 27 27 28 28 29 29 29 29 29 29
7 7 8 10 13 13 13 13 14 17 18 18 18 18 20 22 23 23 24 24 24 24 25 25 26 26 27 28 28 29 28 29 29 28 28 28 27 27 28 28 28 28 28 28 29 29 29 30 30
5 7 8 10 13 14 14 14 15 18 18 19 19 20 21 23 24 24 23 24 24 24 25 25 26 27 28 28 28 28 29 28 29 28 28 28 27 27 27 27 28 28 28 28 29 29 30 30 30
6 8 9 11 12 14 14 15 15 17 18 19 20 22 22 23 24 24 23 23 23 24 24 26 26 27 28 28 28 29 28 28 28 28 27 27 26 26 27 27 27 28 28 28 29 29 29 30 30
7 10 10 9 11 13 15 16 15 17 20 19 20 21 22 23 24 23 23 24 24 24 24 25 26 27 28 28 28 28 27 27 27 27 27 27 26 26 27 28 27 28 28 29 29 29 29 29 30
9 10 10 10 12 13 15 16 15 16 19 20 21 21 21 21 22 22 23 23 23 23 24 25 26 27 28 28 27 27 27 27 27 27 25 24 25 26 27 27 28 29 29 29 30 29 29 30 30
10 10 9 11 12 12 13 15 16 17 19 20 22 22 23 22 23 23 22 23 23 23 24 25 26 27 27 27 27 27 27 27 26 26 26 26 26 26 27 27 28 29 30 29 29 29 30 30 30
9 9 11 12 12 13 13 14 17 18 19 21 21 22 23 23 24 24 24 24 24 24 25 26 26 27 27 27 27 28 27 26 26 27 26 26 26 26 26 27 28 29 29 29 29 29 29 30 30
10 10 11 11 10 11 11 15 19 19 20 21 22 22 23 25 25 25 24 24 24 25 25 26 26 27 26 26 26 26 26 26 25 26 26 25 25 26 27 28 28 28 28 28 28 28 28 29 29
11 11 10 10 10 11 12 15 19 19 20 21 23 23 26 26 26 26 25 25 26 27 27 26 26 26 25 25 25 26 26 26 25 25 26 25 26 26 27 27 27 27 27 27 26 26 27 28 27
10 11 11 9 10 11 12 15 19 21 22 23 24 25 27 26 26 25 26 26 27 27 27 27 26 25 25 25 25 25 25 24 24 25 26 26 26 25 26 26 26 26 26 26 26 26 26 27 27
11 11 11 12 12 12 12 15 20 22 23 23 24 26 26 26 26 26 26 27 27 27 27 26 25 25 25 25 25 25 24 24 24 25 25 26 26 24 24 25 25 26 26 26 26 27 27 27 26
12 12 12 13 13 13 13 15 20 23 23 23 25 26 27 27 27 27 26 26 26 26 25 25 25 25 25 24 24 24 23 23 24 24 25 24 23 23 23 24 25 25 26 26 26 26 26 26 26
12 13 14 13 13 14 13 16 21 24 26 27 26 26 28 28 27 27 27 26 25 25 25 25 25 24 24 23 23 23 23 22 23 22 22 21 21 21 21 22 23 24 25 26 26 26 26 25 25
14 14 15 15 15 16 18 19 22 24 26 27 27 27 27 27 27 25 26 26 25 24 25 25 23 23 22 22 21 21 21 21 21 21 21 21 21 20 20 21 22 23 24 24 25 25 24 24 25
14 15 16 18 18 19 21 21 23 26 27 28 28 27 27 27 27 26 25 24 24 24 24 23 22 22 21 20 20 19 19 19 20 20 20 21 21 20 21 21 22 23 24 24 25 25 24 24 24
Wind_Direction
199 198 197 197 185 146 168 253 276 281 270 260 256 258 264 270 274 282 289 295 304 312 315 315 318 318 315 314 315 316 315 311 311 310 309 309 309 308 306 303 300 297 296 295 293 290 289 287 285
200 201 200 198 179 210 243 261 259 273 272 268 265 266 269 275 278 283 284 290 299 305 311 311 311 312 309 310 312 311 309 307 308 308 307 306 307 306 305 303 302 298 294 293 292 289 288 287 285
200 201 199 190 184 227 243 255 258 267 264 262 266 270 273 282 284 285 287 290 293 299 304 305 307 307 306 309 312 310 307 307 308 307 307 306 305 304 303 302 302 299 295 293 291 289 288 287 286
198 200 196 189 214 234 228 244 252 267 263 265 274 274 279 282 280 289 289 289 292 295 299 301 303 304 304 304 305 305 304 305 306 305 305 306 306 305 302 301 300 297 294 292 291 291 290 288 287
195 195 194 210 232 246 248 246 258 264 270 268 274 277 281 284 287 286 287 289 291 296 299 301 301 299 300 302 303 302 302 302 302 301 301 303 305 304 302 300 298 296 294 293 293 293 292 289 288
194 190 200 219 236 239 250 253 260 254 261 271 274 278 282 283 285 284 286 288 290 293 299 299 296 296 299 299 301 302 300 300 301 301 301 301 303 303 301 298 297 297 296 296 294 292 292 290 288
194 196 205 215 233 240 249 257 261 264 259 264 273 278 281 284 287 292 288 287 288 290 296 297 296 296 298 298 299 300 300 300 300 300 301 301 301 300 299 297 296 297 297 295 294 292 291 291 289
194 197 206 214 232 240 256 259 260 259 267 266 274 280 284 288 290 293 289 286 288 291 293 295 296 294 296 299 299 300 300 299 301 300 300 302 301 299 299 298 296 295 296 295 294 292 292 291 290
190 198 209 220 237 242 249 250 255 263 264 263 273 284 289 288 290 289 289 286 287 290 291 291 293 295 295 297 299 300 300 302 303 301 300 300 301 301 300 299 297 295 294 294 293 292 292 291 289
194 198 217 223 229 240 247 252 258 262 266 270 282 287 288 287 288 287 288 288 287 290 292 291 291 292 294 295 298 299 302 303 305 303 301 299 300 302 301 299 299 298 295 294 292 291 290 290 288
201 209 220 221 229 235 243 249 257 267 270 276 281 287 288 288 290 290 289 289 288 289 292 293 292 292 294 296 297 299 300 302 303 301 300 299 299 300 301 301 300 299 297 294 292 292 290 289 288
208 220 228 227 227 232 241 249 255 263 274 277 283 286 291 291 295 295 293 293 293 291 293 293 291 290 293 294 296 299 300 299 299 299 301 300 300 300 302 300 300 298 297 295 292 291 291 289 288
217 227 231 232 232 240 247 256 262 268 276 279 283 286 289 287 289 292 293 294 295 295 295 291 291 291 291 294 296 299 299 299 299 300 300 300 301 301 302 300 300 300 298 297 295 293 292 290 289
226 234 237 241 243 245 250 257 270 273 275 279 285 285 286 288 289 291 292 295 296 296 295 294 293 293 292 293 295 297 298 300 299 298 299 301 301 302 303 300 300 300 299 298 296 295 292 292 291
233 238 247 256 259 260 257 262 270 273 274 279 285 288 292 293 292 291 291 293 294 293 292 293 293 291 291 292 293 295 298 301 302 300 299 299 300 301 302 301 300 299 299 298 298 295 292 292 293
238 250 254 258 262 264 263 265 268 274 281 286 295 295 294 295 295 294 293 294 294 292 292 292 292 290 290 290 291 295 296 298 299 298 298 300 299 299 301 300 299 299 299 298 298 297 296 293 293
246 256 255 260 264 263 266 269 271 274 277 285 293 293 293 294 295 296 297 296 294 292 292 293 292 293 293 293 294 295 296 296 297 298 298 299 299 298 300 300 300 299 299 298 298 299 298 295 294
242 251 255 259 264 265 267 270 276 282 282 284 290 292 293 294 295 297 299 297 294 292 292 293 293 294 294 295 294 295 295 295 295 298 298 298 298 298 300 301 301 301 301 301 300 299 298 297 296
250 243 248 257 265 271 274 277 280 286 286 290 290 290 292 293 294 296 297 297 293 293 293 293 293 294 294 293 293 294 294 295 297 297 297 297 296 298 301 301 301 302 303 302 301 301 299 298 297
262 265 264 261 263 271 277 284 292 291 286 291 291 291 292 294 295 298 298 296 296 294 292 292 291 292 293 293 293 292 293 295 297 297 296 297 298 300 301 303 303 305 306 304 302 301 301 300 299
275 270 273 276 278 284 290 293 294 290 289 289 291 294 297 298 300 301 301 297 297 296 294 294 292 293 291 291 289 288 291 294 295 296 297 299 300 301 303 304 304 305 305 304 302 300 299 299 300
274 275 277 279 280 278 279 284 288 283 286 288 292 295 298 297 298 300 300 299 298 296 295 294 293 293 292 292 288 289 291 291 292 295 297 299 301 301 302 303 304 305 306 306 304 303 301 302 302
274 272 279 284 287 290 282 280 282 281 282 293 298 298 298 298 299 300 299 299 299 297 295 294 293 292 294 295 294 294 292 292 293 296 298 298 301 303 302 304 305 306 307 308 307 305 304 305 305
284 285 289 289 286 279 274 273 276 280 291 299 300 298 299 299 301 302 299 297 298 298 297 298 297 295 295 295 295 295 293 292 293 295 298 298 301 302 304 307 307 307 308 307 307 306 307 308 307
290 290 287 282 275 268 278 281 280 288 297 301 300 299 302 302 302 302 301 299 298 298 298 299 297 296 294 293 294 294 293 293 293 294 297 299 302 302 303 305 306 306 306 307 307 307 308 309 308
292 299 296 290 286 282 288 284 286 291 298 301 300 299 301 303 302 299 299 300 299 298 299 297 296 295 294 293 293 293 296 296 296 296 299 299 301 301 302 303 304 306 307 309 309 308 309 308 308
311 305 299 295 290 283 280 285 288 295 296 299 300 300 302 303 302 300 299 300 300 299 299 297 296 295 294 294 294 297 299 299 299 299 301 301 302 304 305 306 307 308 308 309 311 310 309 309 309
307 308 304 299 297 294 292 286 286 296 299 300 301 302 303 302 301 300 299 300 300 301 300 300 300 297 298 299 296 297 299 301 301 299 300 303 305 307 308 310 310 311 311 312 314 313 312 311 310
301 303 299 299 299 295 297 295 297 297 301 302 303 303 304 304 303 302 302 300 300 302 303 302 303 301 299 298 300 300 301 301 301 299 301 305 308 307 308 310 311 313 314 315 316 315 314 313 311
301 298 297 301 303 301 301 300 303 304 304 304 303 305 306 305 305 303 303 302 301 303 303 302 302 301 301 300 302 302 302 303 302 301 302 304 306 306 309 310 313 314 314 315 317 316 314 314 313
Height
5884 5886 5887 5889 5891 5892 5894 5895 5895 5894 5894 5893 5893 5893 5894 5894 5895 5896 5894 5893 5893 5893 5892 5892 5891 5891 5890 5889 5888 5888 5887 5886 5885 5885 5884 5883 5882 5881 5880 5878 5877 5876 5875 5875 5874 5873 5873 5872 5871
5882 5885 5887 5888 5889 5892 5894 5895 5894 5894 5893 5892 5892 5893 5893 5893 5893 5893 5893 5892 5893 5892 5891 5891 5890 5889 5889 5888 5887 5886 5886 5885 5884 5883 5882 5881 5880 5879 5878 5876 5875 5874 5873 5873 5872 5871 5870 5870 5869
5881 5883 5885 5887 5889 5891 5894 5895 5894 5892 5892 5891 5891 5892 5892 5893 5892 5892 5892 5891 5891 5891 5891 5890 5889 5888 5888 5887 5886 5885 5884 5883 5882 5881 5880 5879 5878 5877 5875 5874 5873 5872 5871 5870 5869 5869 5868 5867 5866
5879 5882 5885 5887 5889 5890 5892 5894 5892 5891 5891 5891 5890 5891 5891 5891 5891 5890 5890 5890 5890 5890 5889 5888 5888 5887 5886 5885 5884 5883 5882 5881 5880 5879 5878 5876 5875 5874 5873 5872 5871 5870 5868 5867 5867 5866 5865 5864 5864
5877 5880 5883 5886 5889 5891 5891 5891 5890 5890 5890 5889 5890 5889 5889 5889 5889 5888 5888 5888 5888 5888 5887 5887 5886 5885 5884 5883 5882 5881 5880 5879 5878 5876 5875 5874 5872 5871 5870 5869 5868 5867 5866 5865 5864 5863 5862 5861 5861
5876 5879 5883 5886 5889 5890 5891 5890 5889 5888 5889 5889 5888 5888 5887 5887 5887 5886 5886 5886 5886 5886 5885 5884 5883 5883 5882 5881 5880 5878 5877 5876 5875 5874 5872 5871 5870 5868 5867 5866 5865 5863 5862 5861 5861 5859 5859 5858 5857
5875 5878 5881 5886 5888 5889 5890 5888 5888 5888 5887 5887 5886 5886 5885 5885 5885 5884 5884 5884 5883 5883 5883 5882 5881 5880 5879 5878 5876 5875 5874 5873 5872 5870 5869 5868 5866 5865 5864 5862 5861 5860 5859 5858 5857 5856 5855 5854 5853
5873 5876 5879 5884 5886 5888 5888 5887 5886 5886 5886 5885 5883 5883 5884 5883 5883 5882 5882 5881 5880 5880 5880 5879 5878 5877 5876 5875 5873 5872 5871 5870 5868 5867 5866 5864 5863 5862 5860 5859 5858 5857 5856 5855 5853 5852 5851 5850 5849
5872 5876 5879 5882 5885 5886 5885 5884 5885 5884 5884 5882 5880 5881 5882 5880 5880 5880 5879 5878 5878 5877 5876 5876 5875 5873 5872 5871 5870 5869 5867 5866 5865 5863 5862 5861 5859 5858 5857 5855 5854 5852 5851 5850 5849 5848 5846 5845 5844
5871 5874 5877 5880 5882 5882 5882 5881 5882 5880 5880 5879 5879 5879 5879 5877 5876 5876 5876 5875 5874 5873 5872 5871 5871 5870 5869 5868 5867 5865 5864 5862 5861 5860 5858 5857 5855 5854 5853 5851 5849 5848 5847 5845 5844 5843 5841 5840 5839
5870 5872 5874 5876 5878 5879 5879 5879 5880 5878 5878 5878 5876 5876 5875 5874 5873 5873 5872 5871 5870 5869 5868 5867 5866 5865 5865 5864 5863 5861 5860 5858 5857 5855 5854 5852 5851 5849 5848 5847 5845 5843 5842 5840 5839 5837 5836 5835 5834
5869 5870 5870 5873 5874 5875 5876 5877 5877 5877 5877 5875 5873 5872 5872 5871 5870 5869 5869 5867 5866 5866 5865 5864 5863 5861 5860 5859 5858 5857 5856 5854 5853 5851 5849 5848 5846 5845 5843 5841 5839 5838 5836 5835 5833 5832 5831 5829 5828
5867 5868 5869 5870 5872 5873 5873 5874 5875 5874 5875 5872 5870 5870 5869 5868 5867 5866 5866 5864 5864 5863 5861 5860 5858 5857 5856 5855 5854 5853 5852 5850 5848 5846 5844 5843 5841 5840 5838 5836 5834 5832 5830 5829 5828 5826 5824 5823 5821
5866 5866 5867 5868 5869 5870 5872 5872 5872 5872 5872 5871 5869 5868 5866 5865 5864 5863 5862 5861 5860 5859 5858 5856 5854 5853 5852 5851 5850 5848 5847 5846 5843 5841 5839 5838 5836 5835 5833 5831 5829 5827 5825 5823 5822 5820 5818 5816 5814
5864 5866 5866 5867 5868 5869 5870 5870 5871 5870 5868 5867 5866 5865 5863 5863 5861 5860 5858 5857 5856 5854 5853 5852 5851 5850 5848 5847 5846 5844 5842 5840 5838 5837 5835 5834 5831 5830 5828 5825 5824 5822 5820 5818 5816 5813 5811 5810 5808
5864 5865 5867 5868 5867 5867 5869 5869 5869 5867 5865 5864 5863 5862 5861 5860 5858 5856 5854 5853 5851 5850 5849 5848 5847 5845 5844 5843 5841 5839 5838 5836 5834 5832 5831 5828 5826 5824 5823 5821 5818 5816 5814 5812 5810 5807 5805 5803 5801
5862 5864 5866 5867 5866 5866 5867 5867 5866 5864 5863 5862 5860 5859 5858 5856 5854 5852 5850 5849 5847 5846 5845 5843 5842 5841 5839 5838 5836 5834 5833 5831 5829 5827 5826 5824 5821 5819 5817 5815 5813 5811 5808 5806 5803 5801 5799 5797 5794
5863 5864 5864 5865 5865 5864 5864 5864 5864 5861 5860 5859 5857 5856 5855 5853 5850 5848 5846 5843 5842 5841 5841 5839 5838 5836 5835 5832 5831 5829 5828 5826 5824 5823 5820 5818 5816 5814 5812 5810 5807 5805 5803 5800 5797 5794 5792 5790 5787
5861 5861 5861 5862 5863 5862 5862 5861 5861 5859 5857 5854 5853 5852 5851 5849 5846 5844 5842 5840 5839 5838 5836 5834 5833 5831 5830 5828 5826 5824 5823 5821 5819 5817 5815 5813 5811 5809 5807 5805 5802 5799 5797 5793 5791 5788 5786 5783 5780
5859 5859 5859 5860 5860 5859 5859 5858 5857 5856 5853 5851 5850 5848 5847 5843 5841 5840 5838 5837 5835 5834 5832 5830 5828 5826 5824 5822 5820 5819 5817 5816 5814 5812 5810 5808 5805 5804 5801 5799 5796 5793 5790 5788 5785 5782 5780 5777 5774
5857 5858 5858 5858 5857 5856 5856 5855 5855 5852 5850 5848 5846 5844 5841 5839 5838 5836 5834 5832 5831 5829 5827 5826 5824 5821 5819 5817 5815 5813 5811 5810 5809 5807 5805 5803 5801 5799 5796 5794 5791 5788 5785 5782 5779 5776 5774 5771 5768
5855 5855 5855 5854 5854 5854 5855 5853 5851 5848 5847 5845 5842 5840 5838 5835 5833 5831 5830 5828 5826 5825 5823 5821 5818 5816 5814 5812 5810 5809 5807 5805 5804 5802 5800 5798 5796 5794 5791 5788 5785 5782 5779 5776 5773 5770 5767 5764 5761
5853 5852 5852 5851 5851 5850 5851 5852 5849 5845 5843 5841 5839 5837 5834 5831 5829 5827 5825 5823 5821 5819 5817 5815 5813 5810 5809 5807 5805 5803 5802 5800 5798 5796 5794 5792 5790 5788 5785 5782 5779 5776 5773 5770 5767 5764 5761 5758 5754
5850 5850 5850 5849 5849 5849 5849 5848 5845 5842 5840 5838 5836 5833 5830 5827 5824 5822 5820 5818 5816 5814 5812 5809 5807 5805 5803 5801 5799 5798 5796 5795 5793 5791 5789 5787 5785 5782 5780 5777 5774 5771 5768 5765 5762 5758 5755 5752 5748
5848 5848 5847 5847 5847 5847 5846 5844 5841 5838 5837 5835 5832 5829 5826 5821 5820 5817 5815 5813 5810 5809 5807 5804 5802 5799 5797 5795 5794 5793 5791 5789 5787 5785 5783 5781 5779 5777 5774 5772 5769 5766 5763 5760 5756 5753 5750 5746 5742
5846 5845 5845 5843 5843 5843 5842 5840 5837 5834 5832 5830 5828 5825 5821 5818 5815 5813 5810 5808 5805 5803 5801 5799 5796 5794 5792 5790 5789 5787 5785 5784 5782 5779 5777 5775 5774 5771 5769 5766 5764 5760 5757 5754 5751 5748 5744 5741 5737
5843 5843 5842 5841 5840 5840 5839 5836 5832 5829 5827 5825 5823 5820 5817 5814 5811 5808 5805 5803 5800 5798 5796 5793 5791 5788 5786 5784 5783 5782 5780 5778 5776 5774 5771 5769 5767 5766 5763 5761 5758 5755 5752 5749 5746 5742 5739 5735 5731
5843 5840 5839 5838 5836 5835 5835 5833 5829 5825 5823 5821 5818 5814 5812 5809 5805 5802 5800 5797 5795 5792 5790 5788 5785 5783 5781 5779 5778 5777 5775 5773 5771 5769 5767 5765 5762 5761 5759 5756 5753 5750 5747 5744 5740 5737 5733 5730 5726
5840 5839 5836 5834 5833 5831 5829 5830 5824 5821 5819 5815 5812 5809 5806 5803 5800 5797 5794 5791 5789 5787 5785 5783 5781 5778 5776 5775 5773 5772 5770 5769 5767 5765 5763 5760 5758 5757 5754 5751 5748 5746 5742 5739 5735 5732 5728 5724 5721
5837 5835 5834 5832 5830 5827 5825 5825 5820 5816 5812 5809 5806 5803 5800 5797 5794 5791 5787 5784 5782 5781 5780 5778 5776 5774 5772 5770 5769 5767 5766 5764 5762 5761 5759 5756 5754 5752 5750 5747 5744 5741 5738 5734 5730 5727 5723 5719 5715